Regional Weather Roundup
Issued by NWS

Home | Current Version | Previous Version | Graphics & Text | Print | Product List | Glossary On
Versions: 1 2 3 4 5 6 7 8 9 10 11 12 13 14 15 16 17 18 19 20 21 22 23 24 25 26 27 28 29 30 31 32 33 34 35 36 37 38 39 40 41 42 43 44 45 46 47 48 49 50
000
ASUS45 KCYS 231110
RWRWY

WYOMING REGIONAL WEATHER ROUNDUP
NATIONAL WEATHER SERVICE CHEYENNE WY
500 AM MDT FRI JUN 23 2017

NOTE:  "FAIR" INDICATES FEW OR NO CLOUDS BELOW 12,000 FEET
WITH NO SIGNIFICANT WEATHER AND/OR OBSTRUCTIONS TO VISIBILITY.

WYZ001-231200-
YELLOWSTONE NATIONAL PARK

CITY           SKY/WX    TMP DP  RH WIND       PRES   REMARKS
LK YELLOWSTONE   N/A     28  25  88 CALM      30.35S
W YELLOWSTONE  NOT AVBL

$$
WYZ002>013-054>058-071-098>099-231200-
NORTHERN WYOMING

CITY           SKY/WX    TMP DP  RH WIND       PRES   REMARKS
JACKSON        FAIR      43  30  61 CALM      30.27S
CODY           CLOUDY    43  34  70 S3        30.32S
GREYBULL       FAIR      50  31  48 NW8       30.27R
WORLAND        FAIR      45  38  76 SW6       30.28S
SHERIDAN       FAIR      41  35  79 W7        30.27S
BUFFALO        FAIR      39  33  79 W7        30.30R WCI  34
GILLETTE       FAIR      38  35  89 W9        30.25S WCI  31
NEWCASTLE      FAIR      46  36  66 NW15G22   30.24S

$$
WYZ014>020-022>026-101>103-231200-
CENTRAL WYOMING

CITY           SKY/WX    TMP DP  RH WIND       PRES   REMARKS
BIG PINEY      FAIR      42  30  62 SW9       30.31R
PINEDALE       FAIR      41  32  70 NE8       30.31R
DUBOIS         FAIR      36  28  75 CALM      30.34R
LANDER         FAIR      44  32  62 SW5       30.31S
RIVERTON       FAIR      48  33  56 S3        30.31S
CASPER         FAIR      44  34  67 SE6       30.29F
DOUGLAS        FAIR      46  37  71 W5        30.30F

$$
WYZ021-027>030-104>119-231200-
SOUTHERN WYOMING

CITY           SKY/WX    TMP DP  RH WIND       PRES   REMARKS
EVANSTON       FAIR      47  34  60 E8        30.27R
KEMMERER         N/A     46  28  49 E13G18    30.30S
FORT BRIDGER   FAIR      49  32  53 SE13G22   30.30S
ROCK SPRINGS   FAIR      46  27  47 NE18G26   30.30R
DIXON          FAIR      49  32  51 E6        30.25R
RAWLINS        FAIR      45  28  51 NE10      30.31R
SARATOGA       FAIR      46  32  57 N14       30.29R
LARAMIE        CLOUDY    46  33  60 NE9       30.32R
CHEYENNE       CLOUDY    47  38  71 N17G26    30.30R
TORRINGTON     CLOUDY    52  39  61 N10G20    30.27R
PINE BLUFFS    CLOUDY    46  43  87 N20       30.27S

$$



USA.gov is the U.S. government's official web portal to all federal, state and local government web resources and services.